Date,TemperatureHighF,TemperatureAvgF,TemperatureLowF,DewpointHighF,DewpointAvgF,DewpointLowF,HumidityHigh,HumidityAvg,HumidityLow,PressureMaxIn,PressureMinIn,WindSpeedMaxMPH,WindSpeedAvgMPH,GustSpeedMaxMPH,PrecipitationSumIn
2013-1-1,54,42,36,41,36,33,89,78,53,0.00,40.00,8,3,0,0.00
2013-1-2,52,38,31,42,34,29,93,86,59,0.00,40.00,9,3,0,0.00
2013-1-3,56,40,30,39,34,28,92,78,49,0.00,40.00,5,3,0,0.00
2013-1-4,55,41,31,42,35,29,91,80,58,0.00,40.00,4,2,0,0.00
2013-1-5,61,45,32,42,36,29,90,71,41,0.00,40.00,6,3,0,0.00
2013-1-6,50,47,44,44,42,38,91,82,72,0.00,40.00,13,5,0,0.00
2013-1-7,52,46,39,42,40,37,91,82,59,0.00,40.00,6,3,0,0.00
2013-1-8,55,43,34,43,38,31,92,81,61,0.00,40.00,7,3,0,0.00
2013-1-9,62,47,35,50,42,32,93,82,59,0.00,40.00,6,3,0,0.00
2013-1-10,49,42,35,45,35,32,91,76,55,0.00,40.00,19,7,0,0.00
2013-1-11,47,38,30,33,30,27,91,76,50,0.00,40.00,11,4,0,0.00
2013-1-12,47,38,31,33,30,27,89,75,51,0.00,40.00,8,4,0,0.00
2013-1-13,47,37,29,31,28,26,89,73,46,0.00,40.00,10,3,0,0.00
2013-1-14,47,36,28,29,26,22,88,70,38,0.00,40.00,8,3,0,0.00
2013-1-15,53,39,29,32,28,26,88,68,39,0.00,40.00,6,3,0,0.00
2013-1-16,57,41,31,35,31,27,87,69,38,0.00,40.00,4,2,0,0.00
2013-1-17,61,44,30,39,33,28,90,70,37,0.00,40.00,6,3,0,0.00
2013-1-18,64,45,31,41,35,28,88,71,36,0.00,40.00,6,3,0,0.00
2013-1-19,63,45,31,41,35,26,85,70,40,0.00,40.00,6,3,0,0.00
2013-1-20,62,45,32,42,36,28,87,71,40,0.00,40.00,21,4,0,0.00
2013-1-21,66,47,33,42,36,29,89,69,36,0.00,40.00,8,3,0,0.00
2013-1-22,70,47,33,42,36,29,87,68,21,0.00,40.00,10,4,0,0.00
2013-1-23,67,52,41,43,37,32,76,58,29,0.00,40.00,9,3,0,0.00
2013-1-24,59,54,50,52,48,44,89,79,61,0.00,40.00,7,4,0,0.00
2013-1-25,60,55,52,54,52,50,92,88,77,0.00,40.00,6,3,0,0.00
2013-1-26,59,55,53,54,52,51,93,89,77,0.00,40.00,7,3,0,0.00
2013-1-27,53,48,38,50,39,35,91,72,55,0.00,40.00,15,6,0,0.00
2013-1-28,53,43,36,38,35,33,90,76,49,0.00,40.00,10,4,0,0.00
2013-1-29,55,43,33,40,35,31,90,74,49,0.00,40.00,11,4,0,0.00
2013-1-30,61,47,34,42,37,31,89,69,41,0.00,40.00,8,3,0,0.00
2013-1-31,65,52,35,45,41,33,91,68,43,0.00,40.00,7,3,0,0.00